When you browse on this site, cookies collect data to enhance your experience and personalize the content and advertising you see.
Visit our Privacy Policy to learn more. By continuing to use the site, you agree to this use of cookies and data.
  • En España
  • Lista de países
  • Para 7 días
  • Temperatura del agua
  • Mapa Satelital
  • El tiempo en el mapa
  • Informadores
  • user-avatar
    Iniciar sesión

    Tiempo cada hora San Cristóbal

    Hoy, 19 Diciembre, Miércoles

    Tiempo Temperatura Precipitaciones Viento Presión Humedad
    00:00 +21°C° 0 mm 1 mps 672 mmHg 77%
    01:00 +20°C° 0 mm 1 mps 672 mmHg 79%
    02:00 +20°C° 0 mm 1 mps 672 mmHg 79%
    03:00 +20°C° 0 mm 1 mps 672 mmHg 79%
    04:00 +20°C° 0 mm 1 mps 671 mmHg 79%
    05:00 +20°C° 0 mm 1 mps 672 mmHg 76%
    06:00 +21°C° 0 mm 1 mps 672 mmHg 74%
    07:00 +21°C° 0 mm 1 mps 673 mmHg 72%
    08:00 +23°C° 0 mm 1 mps 673 mmHg 65%
    09:00 +25°C° 0 mm 1 mps 674 mmHg 58%
    10:00 +28°C° 0 mm 2 mps 674 mmHg 52%
    11:00 +29°C° 0 mm 2 mps 674 mmHg 48%
    12:00 +30°C° 0 mm 2 mps 673 mmHg 44%
    13:00 +31°C° 0 mm 2 mps 673 mmHg 40%
    14:00 +30°C° 0 mm 2 mps 672 mmHg 41%
    15:00 +30°C° 0 mm 1 mps 672 mmHg 42%
    16:00 +29°C° 0 mm 1 mps 671 mmHg 43%
    17:00 +27°C° 0 mm 1 mps 671 mmHg 49%
    18:00 +24°C° 0 mm 1 mps 671 mmHg 56%
    19:00 +22°C° 0 mm 1 mps 670 mmHg 62%
    20:00 +22°C° 0 mm 1 mps 671 mmHg 61%
    21:00 +21°C° 0 mm 1 mps 671 mmHg 59%
    22:00 +21°C° 0 mm 1 mps 672 mmHg 58%
    23:00 +21°C° 0 mm 1 mps 672 mmHg 60%

    Mañana, 20 Diciembre, Jueves

    Tiempo Temperatura Precipitaciones Viento Presión Humedad
    00:00 +21°C° 0 mm 1 mps 671 mmHg 61%
    01:00 +20°C° 0 mm 1 mps 671 mmHg 63%
    02:00 +20°C° 0 mm 1 mps 671 mmHg 65%
    03:00 +20°C° 0 mm 1 mps 671 mmHg 66%
    04:00 +19°C° 0 mm 1 mps 671 mmHg 68%
    05:00 +20°C° 0 mm 1 mps 671 mmHg 67%
    06:00 +21°C° 0 mm 1 mps 672 mmHg 67%
    07:00 +21°C° 0 mm 1 mps 673 mmHg 66%
    08:00 +23°C° 0 mm 1 mps 673 mmHg 62%
    09:00 +25°C° 0 mm 1 mps 674 mmHg 58%
    10:00 +27°C° 0 mm 1 mps 674 mmHg 55%
    11:00 +28°C° 0 mm 1 mps 674 mmHg 52%
    12:00 +30°C° 0 mm 1 mps 673 mmHg 49%
    13:00 +31°C° 0 mm 1 mps 673 mmHg 46%
    14:00 +30°C° 0 mm 1 mps 672 mmHg 47%
    15:00 +29°C° 0 mm 1 mps 672 mmHg 48%
    16:00 +29°C° 0 mm 1 mps 671 mmHg 49%
    17:00 +27°C° 0 mm 1 mps 671 mmHg 56%
    18:00 +24°C° 0 mm 1 mps 671 mmHg 64%
    19:00 +22°C° 0 mm 1 mps 671 mmHg 71%
    20:00 +22°C° 0 mm 1 mps 671 mmHg 71%
    21:00 +22°C° 0 mm 1 mps 672 mmHg 71%
    22:00 +21°C° 0 mm 1 mps 672 mmHg 71%
    23:00 +21°C° 0 mm 1 mps 672 mmHg 71%

    Pasado mañana, 21 Diciembre, Viernes

    Tiempo Temperatura Precipitaciones Viento Presión Humedad
    00:00 +21°C° 0 mm 1 mps 671 mmHg 72%
    01:00 +20°C° 0 mm 1 mps 671 mmHg 72%
    02:00 +20°C° 0 mm 1 mps 671 mmHg 72%
    03:00 +20°C° 0 mm 1 mps 670 mmHg 71%
    04:00 +20°C° 0 mm 1 mps 670 mmHg 71%
    05:00 +20°C° 0 mm 1 mps 671 mmHg 68%
    06:00 +21°C° 0 mm 1 mps 672 mmHg 66%
    07:00 +22°C° 0 mm 1 mps 672 mmHg 64%
    08:00 +24°C° 0 mm 1 mps 673 mmHg 59%
    09:00 +27°C° 0 mm 1 mps 674 mmHg 55%
    10:00 +29°C° 0 mm 1 mps 675 mmHg 50%
    11:00 +30°C° 0 mm 1 mps 674 mmHg 48%
    12:00 +30°C° 0 mm 1 mps 673 mmHg 47%
    13:00 +31°C° 0 mm 1 mps 673 mmHg 45%
    14:00 +30°C° 0.1 mm 1 mps 672 mmHg 47%
    15:00 +30°C° 0.1 mm 1 mps 671 mmHg 48%
    16:00 +29°C° 0.1 mm 1 mps 671 mmHg 50%
    17:00 +27°C° 0.1 mm 1 mps 671 mmHg 56%
    18:00 +25°C° 0.1 mm 1 mps 671 mmHg 63%
    19:00 +23°C° 0.1 mm 1 mps 671 mmHg 69%
    20:00 +22°C° 0.2 mm 1 mps 672 mmHg 69%
    21:00 +22°C° 0.2 mm 1 mps 672 mmHg 70%
    22:00 +22°C° 0.2 mm 1 mps 672 mmHg 70%
    23:00 +21°C° 0.1 mm 1 mps 672 mmHg 70%

    22 Diciembre, Sábado

    Tiempo Temperatura Precipitaciones Viento Presión Humedad
    00:00 +21°C° 0.1 mm 1 mps 672 mmHg 70%
    01:00 +21°C° 0.1 mm 1 mps 671 mmHg 70%
    02:00 +20°C° 0 mm 1 mps 671 mmHg 70%
    03:00 +20°C° 0 mm 1 mps 671 mmHg 70%
    04:00 +20°C° 0 mm 1 mps 671 mmHg 70%
    05:00 +20°C° 0 mm 1 mps 672 mmHg 67%
    06:00 +21°C° 0 mm 1 mps 672 mmHg 64%
    07:00 +21°C° 0 mm 1 mps 673 mmHg 61%
    08:00 +23°C° 0 mm 1 mps 673 mmHg 57%
    09:00 +26°C° 0 mm 1 mps 674 mmHg 53%
    10:00 +28°C° 0 mm 1 mps 675 mmHg 48%
    11:00 +29°C° 0.1 mm 1 mps 674 mmHg 47%
    12:00 +29°C° 0.1 mm 1 mps 673 mmHg 46%
    13:00 +30°C° 0.1 mm 1 mps 672 mmHg 45%
    14:00 +29°C° 0 mm 1 mps 672 mmHg 46%
    15:00 +28°C° 0 mm 1 mps 671 mmHg 47%
    16:00 +28°C° 0 mm 1 mps 671 mmHg 48%
    17:00 +26°C° 0 mm 1 mps 671 mmHg 55%
    18:00 +24°C° 0 mm 1 mps 671 mmHg 61%
    19:00 +22°C° 0 mm 1 mps 671 mmHg 68%
    20:00 +21°C° 0 mm 1 mps 672 mmHg 65%
    21:00 +21°C° 0 mm 1 mps 672 mmHg 63%
    22:00 +21°C° 0 mm 1 mps 672 mmHg 60%
    23:00 +20°C° 0 mm 1 mps 672 mmHg 60%

    23 Diciembre, Domingo

    Tiempo Temperatura Precipitaciones Viento Presión Humedad
    00:00 +20°C° 0 mm 1 mps 671 mmHg 59%
    01:00 +19°C° 0 mm 1 mps 671 mmHg 59%
    02:00 +19°C° 0 mm 1 mps 671 mmHg 59%
    03:00 +18°C° 0 mm 1 mps 671 mmHg 58%
    04:00 +18°C° 0 mm 1 mps 671 mmHg 58%
    05:00 +19°C° 0 mm 1 mps 671 mmHg 57%
    06:00 +19°C° 0 mm 1 mps 672 mmHg 56%
    07:00 +20°C° 0 mm 1 mps 672 mmHg 55%
    08:00 +23°C° 0 mm 1 mps 673 mmHg 49%
    09:00 +25°C° 0 mm 1 mps 674 mmHg 44%
    10:00 +28°C° 0 mm 1 mps 674 mmHg 39%
    11:00 +29°C° 0 mm 1 mps 674 mmHg 36%
    12:00 +30°C° 0 mm 2 mps 673 mmHg 32%
    13:00 +31°C° 0 mm 2 mps 672 mmHg 29%
    14:00 +30°C° 0 mm 2 mps 672 mmHg 30%
    15:00 +30°C° 0 mm 2 mps 671 mmHg 31%
    16:00 +29°C° 0 mm 2 mps 671 mmHg 32%
    17:00 +26°C° 0 mm 1 mps 671 mmHg 39%
    18:00 +23°C° 0 mm 1 mps 671 mmHg 46%
    19:00 +21°C° 0 mm 1 mps 671 mmHg 53%
    20:00 +20°C° 0 mm 1 mps 671 mmHg 53%
    21:00 +20°C° 0 mm 1 mps 671 mmHg 52%
    22:00 +19°C° 0 mm 1 mps 671 mmHg 52%
    23:00 +19°C° 0 mm 1 mps 671 mmHg 51%

    24 Diciembre, Lunes

    Tiempo Temperatura Precipitaciones Viento Presión Humedad
    00:00 +18°C° 0 mm 1 mps 671 mmHg 51%
    01:00 +18°C° 0 mm 1 mps 670 mmHg 51%
    02:00 +18°C° 0 mm 1 mps 670 mmHg 48%
    03:00 +16°C° 0 mm 1 mps 670 mmHg 46%
    04:00 +16°C° 0 mm 1 mps 670 mmHg 44%
    05:00 +18°C° 0 mm 1 mps 671 mmHg 42%
    06:00 +18°C° 0 mm 1 mps 671 mmHg 40%
    07:00 +19°C° 0 mm 1 mps 672 mmHg 37%
    08:00 +22°C° 0 mm 1 mps 673 mmHg 36%
    09:00 +25°C° 0 mm 1 mps 673 mmHg 34%
    10:00 +28°C° 0 mm 2 mps 674 mmHg 33%
    11:00 +29°C° 0 mm 2 mps 673 mmHg 32%
    12:00 +30°C° 0 mm 2 mps 673 mmHg 31%
    13:00 +31°C° 0 mm 2 mps 672 mmHg 30%
    14:00 +30°C° 0 mm 2 mps 671 mmHg 32%
    15:00 +29°C° 0 mm 2 mps 671 mmHg 34%
    16:00 +28°C° 0 mm 1 mps 670 mmHg 36%
    17:00 +26°C° 0 mm 1 mps 670 mmHg 44%
    18:00 +23°C° 0 mm 1 mps 670 mmHg 51%
    19:00 +21°C° 0 mm 1 mps 670 mmHg 59%
    20:00 +20°C° 0 mm 1 mps 670 mmHg 60%
    21:00 +20°C° 0 mm 1 mps 670 mmHg 61%
    22:00 +19°C° 0 mm 1 mps 671 mmHg 62%
    23:00 +19°C° 0 mm 1 mps 670 mmHg 63%
    Mostrar más